Location: Casteau
(50.5142°N, 4.0161°E)
Time: 19:08:47
(UTC+00:00)

Transit 2A - Pass Details

Date: 31 July 2021
Orbit: 594 x 964 km, 66.7° (Epoch: 27 September)

Event Time Altitude Azimuth Distance (km) Brightness Sun altitude
Rises 07:30:08 0° 239° (WSW) 2,857 8.6 29.7°
Reaches altitude 10° 07:32:25 10° 246° (WSW) 1,983 7.8 30.1°
Maximum altitude 07:36:37 41° 318° (NW) 947 6.5 30.7°
Drops below altitude 10° 07:41:12 10° 29° (NNE) 2,155 8.7 31.4°
Sets 07:43:47 0° 36° (NE) 3,138 9.5 31.9°
